Observations for Trim Patrick St
| Time | AQI | Temp °C | Hum % | Pres Pa | CO μg/m³ | H₂S μg/m³ | NO μg/m³ | NO₂ μg/m³ | O₃ μg/m³ | SO₂ μg/m³ | PM1 μg/m³ | PM2.5 μg/m³ | PM10 μg/m³ |
|---|---|---|---|---|---|---|---|---|---|---|---|---|---|
| Monday 3 August 2026 | |||||||||||||
| 23:07 | 3 | 16.8 | 84 | 38,460 | 0.74 | 12.97 | 0.92 | 40.13 | 17.3 | 0 | 2.86 | 5.69 | 6.25 |
| 23:06 | 3 | 16.8 | 84 | 38,460 | 0.13 | 10.64 | 0.69 | 50.14 | 22.48 | 0 | 3.71 | 6.36 | 6.99 |
| 23:05 | 3 | 16.8 | 84 | 38,460 | 0.14 | 7.92 | 0.84 | 54.79 | 16.07 | 0 | 2.86 | 6.34 | 6.98 |
| 23:03 | 3 | 16.8 | 84 | 38,460 | 0.14 | 8.71 | 1.13 | 36.13 | 21.23 | 0 | 3.71 | 6.32 | 6.95 |
| 23:02 | 3 | 16.8 | 84 | 38,460 | 0.13 | 7.4 | 1 | 43.82 | 15.47 | 0 | 2.86 | 5.63 | 6.19 |
| 23:00 | 3 | 16.8 | 84 | 38,460 | 0.11 | 9.54 | 1.12 | 32.17 | 25.64 | 0 | 2.86 | 6.32 | 6.95 |
| 22:58 | 3 | 16.8 | 84 | 38,460 | 0.12 | 12.42 | 0.97 | 48.05 | 15.48 | 0 | 2.86 | 6.34 | 6.98 |
| 22:57 | 3 | 16.8 | 84 | 38,460 | 0.13 | 11.95 | 1.01 | 51.59 | 27.67 | 0 | 4.57 | 7.05 | 7.75 |
| 22:54 | 3 | 16.8 | 84 | 38,460 | 0.14 | 8.76 | 0.85 | 37 | 20.64 | 0 | 2.86 | 5.68 | 6.25 |
| 22:53 | 3 | 16.8 | 84 | 38,460 | 0.13 | 11.24 | 0.85 | 40.53 | 18.85 | 0 | 3.71 | 6.38 | 7.02 |
| 22:52 | 3 | 16.8 | 84 | 38,460 | 0.12 | 9.39 | 0.87 | 49.78 | 11.85 | 0 | 3.71 | 6.38 | 7.02 |
| 22:51 | 3 | 16.8 | 84 | 38,460 | 0.14 | 7.3 | 0.76 | 25.04 | 22.32 | 0 | 3.71 | 6.38 | 7.02 |
| 22:50 | 3 | 16.8 | 83 | 38,460 | 0.11 | 8.39 | 0.85 | 38.72 | 24.97 | 0 | 2.86 | 5.71 | 6.28 |
| 22:49 | 3 | 16.8 | 83 | 38,460 | 0.12 | 9.78 | 0.74 | 43.72 | 15.82 | 0 | 3.71 | 7.08 | 7.79 |
| 22:48 | 3 | 16.8 | 83 | 38,460 | 0.13 | 8.92 | 0.83 | 33.42 | 23.51 | 0 | 3.71 | 7.08 | 7.79 |
| 22:47 | 3 | 16.8 | 83 | 38,460 | 0.1 | 11.37 | 0.68 | 34.33 | 23.02 | 0 | 3.71 | 7.09 | 7.79 |
| 22:46 | 3 | 16.8 | 83 | 38,460 | 0.11 | 13.33 | 0.61 | 57.22 | 32.93 | 0 | 2.86 | 6.4 | 7.04 |
| 22:45 | 3 | 16.8 | 83 | 38,460 | 0.1 | 8.34 | 0.57 | 31.31 | 22.25 | 0 | 3.71 | 6.4 | 7.04 |
| 22:44 | 3 | 16.8 | 83 | 38,460 | 0.12 | 12.91 | 0.59 | 47.25 | 25.46 | 0 | 3.71 | 7.1 | 7.81 |
| 22:43 | 3 | 16.8 | 83 | 38,460 | 0.13 | 10.14 | 0.63 | 45.11 | 12.88 | 0 | 5.43 | 8.49 | 9.34 |